Regional Weather Roundup
Issued by NWS

Home | Current Version | Previous Version | Graphics & Text | Print | Product List | Glossary On
Versions: 1 2 3 4 5 6 7 8 9 10 11 12 13 14 15 16 17 18 19 20 21 22 23 24 25 26 27 28 29 30 31 32 33 34 35 36 37 38 39 40 41 42 43 44 45 46 47 48 49 50
000
ASUS43 KBIS 221420
RWRND

NORTH DAKOTA REGIONAL WEATHER ROUNDUP
NATIONAL WEATHER SERVICE BISMARCK ND
900 AM CDT TUE JUL 22 2014

NOTE: "FAIR" INDICATES FEW OR NO CLOUDS BELOW 12,000 FEET WITH NO
SIGNIFICANT WEATHER AND/OR OBSTRUCTIONS TO VISIBILITY.


NDZ001>003-009>011-017-221500-
NORTHWEST NORTH DAKOTA

CITY           SKY/WX    TMP DP  RH WIND       PRES   REMARKS
WILLISTON      SUNNY     66  61  84 CALM      30.15S
MINOT          PTSUNNY   65  59  81 CALM      30.15R
MINOT AFB      SUNNY     66  64  93 N5        30.15R
$$

NDZ018>021-031>035-040>046-221500-
SOUTHWEST NORTH DAKOTA

CITY           SKY/WX    TMP DP  RH WIND       PRES   REMARKS
BISMARCK       MOSUNNY   69  63  81 NW6       30.17R
DICKINSON      SUNNY     63  61  93 CALM      30.18R
GARRISON         N/A     65  62  90 N3        30.16R
HETTINGER ARPT SUNNY     66  61  84 NE3       30.20R
$$

NDZ004>008-012>016-024-026-027-054-221500-
NORTHEAST NORTH DAKOTA

CITY           SKY/WX    TMP DP  RH WIND       PRES   REMARKS
GRAND FORKS    MOSUNNY   68  60  75 N9        30.07R
GRND FRKS AFB  SUNNY     68  62  83 NW8       30.09R
DEVILS LAKE    SUNNY     66  59  77 N7        30.12R
$$

NDZ022-023-025-028>030-036>039-047>053-221500-
SOUTHEAST NORTH DAKOTA

CITY           SKY/WX    TMP DP  RH WIND       PRES   REMARKS
FARGO          SUNNY     69  60  73 N16       30.07R
JAMESTOWN      SUNNY     68  60  75 NW10      30.13R
$$




USA.gov is the U.S. government's official web portal to all federal, state and local government web resources and services.